Location: Unspecified
(34.4500°N, 0.0000°E)
Time: 21:08:54
(UTC+00:00)

Envisat - Pass Details

Date: 05 March 2021
Orbit: 764 x 766 km, 98.1° (Epoch: 12 April)

Event Time Altitude Azimuth Distance (km) Brightness Sun altitude
Rises 05:26:52 0° 14° (NNE) 3,236 6.5 -12.6°
Reaches altitude 10° 05:29:11 10° 17° (NNE) 2,306 5.7 -12.1°
Maximum altitude 05:34:16 72° 102° (ESE) 805 3.3 -11.0°
Drops below altitude 10° 05:39:18 10° 186° (S) 2,290 5.4 -10.0°
Sets 05:41:36 0° 188° (S) 3,212 6.1 -9.5°
